Weather in Posyolok Dzerzhinskogo

Russia / Saint-Petersburg and Leningrad Oblast     58°39′59″N   29°53′24″E
temp.,
°C
wind,
m/s
gust,
m/s
humid.,
%
clouds,
%
prec.,
mm/h
press.,
hPa
HPBL,
m
9 december, thu
thu900:00−16sw1110071 0.0 102722
03:00−16ssw1110075 0.0 102711
06:00−17s1110088 0.0 102715
09:00−17s1110081 0.0 102812
12:00−13sse129493 0.0 102966
15:00−13se129522 0.0 102951
18:00−16se2399100 0.0 102946
21:00−16ese279829 0.0 1029109
10 december, fri
fri1000:00−16ese279846 0.0 1030131
03:00−15ese310945 0.0 1029178
06:00−14ese311905 0.0 1028216
09:00−12ese413855 0.0 1027287
12:00−10ese4147853 0.0 1027402
15:00−8ese5157966 0.0 1025423
18:00−7ese51582100 0.0 1024431
21:00−5ese5148598 0.0 1024490
11 december, sat
sat1100:00−4ese51588100 0.0 1024517
03:00−3ese51490100 0.0 1023496
06:00−2ese51591100 0.1 1022511
09:00−2ese51493100 0.1 1023538
12:00−1se51493100 0.1 1023527
15:000se51392100 0.3 1023526
18:000se41291100 0.0 1024446
21:00−1ese41292100 0.0 1024379
12 december, sun
sun1200:00−3se41290100 0.0 1025414
03:00−4ese41189100 0.0 1024371
06:00−3se41292100 0.0 1023440
09:00−1se41294100 0.1 1024454
12:00+1sse41297100 0.0 1024540
15:00+2s41195100 0.0 1025683
18:00+1s41094100 0.0 1026661
21:00+1s31094100 0.0 1026455
13 december, mon
mon1300:00−1s3995100 0.0 1027277
03:00−3s269865 0.0 1027101
06:00−4s2510098 0.0 102791
09:00−2ssw1399100 0.0 1027139
12:00−1s1298100 0.0 1028141
15:00−1wsw0198100 0.0 102872
18:00−2se1199100 0.0 102885
21:00−1se119990 0.0 102854